Happy Valentine's Day! 

Flight Track Log - Related Links

Times and Time Zones

All times are in EDT time to prevent confusion due to time zone crossing. See the N443DW flight status page for this flight to view local times or setup timezone preferences in your user account.


Time Position Orientation Groundspeed Altitude Reporting Facility
EDT Latitude Longitude Course Direction KTS MPH feet Rate Location/Type
Thu 05:05:22 PM 41.8167 -87.7333 66° East 211 243 3,100  Level Chicago TRACON
Thu 05:06:23 PM 41.8000 -87.6500 105° East 198 228 5,000 1,046 Climbing Chicago TRACON
Thu 05:07:11 PM 41.7992 -87.6014 91° East 211 243 5,000 818 Level Chicago Center
Thu 05:08:13 PM 41.7822 -87.4942 102° East 232 267 6,500 1,742 Climbing Chicago Center
Thu 05:09:15 PM 41.7761 -87.4258 97° East 194 223 8,600 1,935 Climbing Chicago Center
Thu 05:10:17 PM 41.7769 -87.3539 89° East 192 221 10,500 1,790 Climbing Chicago Center
Thu 05:11:19 PM 41.7878 -87.2792 79° East 202 232 12,300 1,645 Climbing Chicago Center
Thu 05:12:21 PM 41.7886 -87.2014 89° East 206 237 13,900 1,645 Climbing Chicago Center
Thu 05:13:23 PM 41.7831 -87.1203 95° East 214 246 15,700 1,839 Climbing Chicago Center
Thu 05:14:25 PM 41.7847 -87.0208 89° East 221 254 17,700 1,694 Climbing Chicago Center
Thu 05:15:27 PM 41.7883 -86.9378 87° East 223 257 19,200 1,452 Climbing Chicago Center
Thu 05:16:29 PM 41.7831 -86.8481 94° East 235 270 20,700 1,403 Climbing Chicago Center
Thu 05:17:31 PM 41.7775 -86.7536 94° East 250 288 22,100 1,452 Climbing Chicago Center
Thu 05:18:33 PM 41.7753 -86.6544 92° East 253 291 23,700 1,306 Climbing Chicago Center
Thu 05:19:35 PM 41.7633 -86.5606 100° East 257 296 24,800 1,016 Climbing Chicago Center
Thu 05:20:37 PM 41.7375 -86.4667 110° East 267 307 25,800 968 Climbing Chicago Center
Thu 05:21:39 PM 41.7156 -86.3711 107° East 269 310 26,800 1,016 Climbing Chicago Center
Thu 05:22:41 PM 41.6908 -86.2564 106° East 268 308 27,900 823 Climbing Chicago Center
Thu 05:23:43 PM 41.6708 -86.1592 105° East 272 313 28,500 532 Climbing Chicago Center
Thu 05:24:45 PM 41.6825 -86.0517 82° East 289 333 29,000 242 Climbing Chicago Center
Thu 05:25:47 PM 41.6947 -85.9350 82° East 313 360 29,000  Level Chicago Center
Thu 05:26:49 PM 41.7089 -85.8094 81° East 335 386 29,000 -48 Level Chicago Center
Thu 05:27:51 PM 41.7228 -85.6817 82° East 345 397 28,900  Descending Chicago Center
Thu 05:28:53 PM 41.7436 -85.5242 80° East 353 406 29,000 48 Climbing Chicago Center
Thu 05:29:55 PM 41.7597 -85.3900 81° East 357 411 29,000  Level Chicago Center
Thu 05:30:57 PM 41.7742 -85.2578 82° East 354 407 29,000  Level Chicago Center
Thu 05:32:00 PM 41.7767 -85.1250 89° East 356 410 29,000  Level Chicago Center
Thu 05:33:02 PM 41.7769 -84.9906 90° East 361 415 29,000  Level Chicago Center
Thu 05:33:46 PM 41.7792 -84.8828 88° East 365 420 29,000 231 Level Cleveland Center
Thu 05:34:46 PM 41.7778 -84.7519 91° East 360 414 29,400 650 Climbing Cleveland Center
Thu 05:35:46 PM 41.7781 -84.6267 90° East 347 399 30,300 800 Climbing Cleveland Center
Thu 05:36:46 PM 41.7800 -84.5097 89° East 325 374 31,000 850 Climbing Cleveland Center
Thu 05:37:46 PM 41.7778 -84.3953 91° East 318 366 32,000 700 Climbing Cleveland Center
Thu 05:38:46 PM 41.7772 -84.2839 90° East 307 353 32,400 450 Climbing Cleveland Center
Thu 05:39:46 PM 41.7383 -84.1953 120° Southeast 288 331 32,900 300 Climbing Cleveland Center
Thu 05:40:46 PM 41.6933 -84.0956 121° Southeast 293 337 33,000 50 Climbing Cleveland Center
Thu 05:41:46 PM 41.6486 -83.9931 120° Southeast 312 359 33,000  Level Cleveland Center
Thu 05:42:46 PM 41.6036 -83.8878 120° Southeast 327 376 33,000  Level Cleveland Center
Thu 05:43:46 PM 41.5589 -83.7772 118° Southeast 327 376 33,000  Level Cleveland Center
Thu 05:44:46 PM 41.5119 -83.6697 120° Southeast 332 382 33,000  Level Cleveland Center
Thu 05:45:46 PM 41.4647 -83.5619 120° Southeast 332 382 33,000  Level Cleveland Center
Thu 05:46:46 PM 41.4172 -83.4547 121° Southeast 332 382 33,000  Level Cleveland Center
Thu 05:47:46 PM 41.3700 -83.3475 120° Southeast 332 382 33,000  Level Cleveland Center
Thu 05:48:46 PM 41.3244 -83.2403 119° Southeast 332 382 33,000  Level Cleveland Center
Thu 05:49:46 PM 41.2731 -83.1222 120° Southeast 337 388 33,000  Level Cleveland Center
Thu 05:50:46 PM 41.2275 -83.0156 120° Southeast 337 388 33,000  Level Cleveland Center
Thu 05:51:46 PM 41.1817 -82.9061 119° Southeast 342 394 33,000  Level Cleveland Center
Thu 05:52:46 PM 41.1358 -82.7997 120° Southeast 336 387 33,000  Level Cleveland Center
Thu 05:53:46 PM 41.0900 -82.6908 119° Southeast 341 392 33,000  Level Cleveland Center
Thu 05:54:46 PM 41.0419 -82.5847 121° Southeast 336 387 33,000  Level Cleveland Center
Thu 05:55:46 PM 40.9936 -82.4786 121° Southeast 336 387 33,000  Level Cleveland Center
Thu 05:56:46 PM 40.9453 -82.3728 121° Southeast 341 392 33,000  Level Cleveland Center
Thu 05:57:46 PM 40.8969 -82.2642 120° Southeast 341 392 33,000  Level Cleveland Center
Thu 05:58:46 PM 40.8544 -82.1697 121° Southeast 341 392 33,000  Level Cleveland Center
Thu 05:59:46 PM 40.8081 -82.0617 120° Southeast 341 392 33,000  Level Cleveland Center
Thu 06:00:46 PM 40.7572 -81.9564 122° Southeast 341 392 33,000  Level Cleveland Center
Thu 06:01:46 PM 40.7083 -81.8539 122° Southeast 334 384 33,000  Level Cleveland Center
Thu 06:02:46 PM 40.6617 -81.7464 120° Southeast 334 384 33,000  Level Cleveland Center
Thu 06:03:46 PM 40.6125 -81.6417 122° Southeast 334 384 33,000  Level Cleveland Center
Thu 06:04:46 PM 40.5633 -81.5369 122° Southeast 334 384 33,000  Level Cleveland Center
Thu 06:05:46 PM 40.5164 -81.4269 119° Southeast 339 390 33,000  Level Cleveland Center
Thu 06:06:46 PM 40.4711 -81.3228 120° Southeast 339 390 33,000  Level Cleveland Center
Thu 06:07:46 PM 40.4219 -81.2214 122° Southeast 339 390 33,000  Level Cleveland Center
Thu 06:08:46 PM 40.3744 -81.1144 120° Southeast 339 390 33,000  Level Cleveland Center
Thu 06:09:46 PM 40.3228 -81.0106 123° Southeast 339 390 33,000  Level Cleveland Center
Thu 06:10:46 PM 40.2731 -80.9069 122° Southeast 339 390 33,000  Level Cleveland Center
Thu 06:11:46 PM 40.2275 -80.7978 119° Southeast 339 390 33,000  Level Cleveland Center
Thu 06:12:46 PM 40.1797 -80.6944 121° Southeast 339 390 33,000  Level Cleveland Center
Thu 06:13:46 PM 40.1317 -80.5911 121° Southeast 339 390 33,000  Level Cleveland Center
Thu 06:14:46 PM 40.0817 -80.4856 122° Southeast 339 390 33,000 -450 Level Cleveland Center
Thu 06:15:46 PM 40.0317 -80.3769 121° Southeast 339 390 32,100 -750 Descending Cleveland Center
Thu 06:16:46 PM 39.9750 -80.2661 124° Southeast 351 404 31,500 -650 Descending Cleveland Center
Thu 06:17:46 PM 39.9183 -80.1553 124° Southeast 362 417 30,800 -750 Descending Cleveland Center
Thu 06:18:46 PM 39.8678 -80.0422 120° Southeast 362 417 30,000 -750 Descending Cleveland Center
Thu 06:19:46 PM 39.8400 -79.9208 107° East 350 403 29,300 -700 Descending Cleveland Center
Thu 06:20:46 PM 39.8144 -79.8019 106° East 350 403 28,600 -1,683 Descending Cleveland Center
Thu 06:22:55 PM 39.7575 -79.5406 106° East 348 400 24,000 -2,095 Descending Washington Center
Thu 06:23:55 PM 39.7342 -79.4178 104° East 348 400 22,000 -1,438 Descending Washington Center
Thu 06:24:56 PM 39.7108 -79.2978 104° East 343 395 21,100 -958 Descending Washington Center
Thu 06:25:54 PM 39.6853 -79.1778 105° East 343 395 20,100 -915 Descending Washington Center
Thu 06:26:54 PM 39.6575 -79.0633 107° East 343 395 19,300 -555 Descending Washington Center
Thu 06:27:53 PM 39.6336 -78.9517 105° East 332 382 19,000 -101 Descending Washington Center
Thu 06:28:53 PM 39.6056 -78.8317 107° East 322 371 19,100 -197 Climbing Washington Center
Thu 06:29:55 PM 39.5686 -78.7306 115° Southeast 312 359 18,600 -689 Descending Washington Center
Thu 06:30:55 PM 39.5275 -78.6264 117° Southeast 312 359 17,700 -1,091 Descending Washington Center
Thu 06:31:56 PM 39.4928 -78.5200 113° Southeast 317 365 16,400 -1,462 Descending Washington Center
Thu 06:32:54 PM 39.4556 -78.4111 114° Southeast 317 365 14,800 -2,168 Descending Washington Center
Thu 06:33:55 PM 39.4247 -78.3078 111° Southeast 317 365 12,100 -2,579 Descending Washington Center
Thu 06:34:55 PM 39.3958 -78.2047 110° East 317 365 9,600 -1,881 Descending Washington Center
Thu 06:35:53 PM 39.3644 -78.1094 113° Southeast 303 349 8,400 -1,169 Descending Washington Center
Thu 06:36:53 PM 39.3247 -78.0142 118° Southeast 297 342 7,300 -694 Descending Washington Center
Thu 06:37:54 PM 39.2889 -77.9272 118° Southeast 292 336 7,000 -787 Descending Washington Center
Thu 06:38:55 PM 39.2633 -77.8514 114° Southeast 287 330 5,700 -1,008 Descending Washington Center
Thu 06:39:53 PM 39.2506 -77.7519 99° East 281 323 5,000 -407 Descending Washington Center
Thu 06:40:53 PM 39.2808 -77.6831 60° Northeast 221 254 4,900  Descending Washington Center
Thu 06:41:54 PM 39.3131 -77.6222 56° Northeast 208 239 5,000 59 Climbing Washington Center
Thu 06:42:34 PM 39.3333 -77.5667 65° Northeast 217 250 5,000  Level Potomac TRACON
Thu 06:43:34 PM 39.3833 -77.4833 52° Northeast 252 290 5,000  Level Potomac TRACON
Thu 06:44:35 PM 39.4167 -77.4167 57° Northeast 256 295 5,000  Level Potomac TRACON
Thu 06:45:35 PM 39.4500 -77.3333 63° Northeast 260 299 5,000 -150 Level Potomac TRACON
Thu 06:46:35 PM 39.4500 -77.2333 90° East 265 305 4,700 -500 Descending Potomac TRACON
Thu 06:47:35 PM 39.4500 -77.1333 90° East 275 316 4,000 -400 Descending Potomac TRACON
Thu 06:48:35 PM 39.4333 -77.0500 104° East 255 293 3,900  Descending Potomac TRACON
Thu 06:49:35 PM 39.4000 -76.9667 117° Southeast 254 292 4,000 53 Climbing Potomac TRACON
Thu 06:50:29 PM 39.3833 -76.8833 104° East 262 302 4,000  Level Potomac TRACON
Thu 06:51:35 PM 39.3667 -76.8000 104° East 200 230 4,000  Level Potomac TRACON
Thu 06:52:35 PM 39.3667 -76.7333 90° East 195 224 4,000 -200 Level Potomac TRACON
Thu 06:53:35 PM 39.3833 -76.6667 72° East 180 207 3,600 -730 Descending Potomac TRACON
Thu 06:54:30 PM 39.3833 -76.6167 90° East 190 219 2,600 -942 Descending Potomac TRACON
Thu 06:55:36 PM 39.3667 -76.5333 104° East 200 230 1,700 -694 Descending Potomac TRACON
Thu 06:56:31 PM 39.3667 -76.4833 90° East 183 211 1,200 -694 Descending Potomac TRACON
Thu 06:57:37 PM 39.3333 -76.4333 131° Southeast 117 135 300 -818 Descending Potomac TRACON
Thu 06:59:00 PM 39.3257 -76.4138 113° Southeast  Level Estimated
Thu 07:06:00 PM 39.3257 -76.4138 113° Southeast  Level Estimated
Thu 07:07:00 PM 39.3257 -76.4138 113° Southeast  Level Estimated
Thu 07:08:00 PM 39.3257 -76.4138 113° Southeast  Level Estimated
Thu 07:09:00 PM 39.3257 -76.4138 113° Southeast  Level Estimated
Thu 07:10:00 PM 39.3257 -76.4138 113° Southeast  Level Estimated
Thu 07:11:00 PM 39.3257 -76.4138 113° Southeast  Level Estimated
Thu 07:12:00 PM 39.3257 -76.4138 113° Southeast  Level Estimated
Thu 07:13:00 PM 39.3257 -76.4138 113° Southeast  Level Estimated

Login

Don't have an account? Register now (free) for customized features, flight alerts, and more!